Home   Weather   Grise Fiord   Past weeks

Flag for Canada Past Weather in Grise Fiord, Nunavut, Canada — Yesterday and Last 2 Weeks

Now
-1 °F

Frigid.


Feels Like: -22 °F
Forecast: -28 / -25 °F
Wind: 16 mph from Northwest

Location: Kitsissut (Carey Oeer)

Current Time: Jan 20, 2017 at 5:05:34 am

Latest Report: Jan 20, 2017 at 4:00 am


Visibility: N/A

Pressure: 29.97 "Hg

Humidity: 85%

Dew Point: -5 °F

Location of Grise FiordLocation

Past Weather in Grise Fiord — Graph

°F

Grise Fiord Temperature Yesterday

Maximum temperature yesterday: -4 °F (at 7:00 pm)
Minimum temperature yesterday: -8 °F (at 3:00 am)
Average temperature yesterday: -6 °F

High & Low Weather Summary for the Past Weeks

 TemperatureHumidityPressure
High6 °F (Jan 13, 4:00 am)88% (Jan 14, 6:00 am)30.25 "Hg (Jan 14, 6:00 am)
Low-14 °F (Jan 17, 10:00 am)58% (Jan 19, 2:00 pm)28.88 "Hg (Jan 15, 1:00 pm)
Average-2 °F78%29.65 "Hg
* Reported Jan 5 3:00 am — Jan 20 3:00 am, Grise Fiord, Weather by CustomWeather, © 2017

Note: Actual official high and low records may vary slightly from our data, if they occured in-between our weather recording intervals... More about our weather records

Advertising

Grise Fiord Weather History for the Previous 24 Hours

Scroll right to see more
 ConditionsComfort  
Time TempWeatherWind HumidityBarometerVisibility
3:00 am
Fri, Jan 20
-3 °FFrigid.17 mph82%29.97 "HgN/A
2:00 am-2 °FFrigid.10 mph82%29.97 "HgN/A
1:00 am-2 °FFrigid.7 mph76%29.96 "HgN/A
12:00 am-4 °FFrigid.12 mph79%29.95 "HgN/A
11:00 pm
Thu, Jan 19
-4 °FFrigid.8 mph76%29.94 "HgN/A
10:00 pm-4 °FFrigid.8 mph76%29.94 "HgN/A
9:00 pm-5 °FFrigid.8 mph81%29.94 "HgN/A
8:00 pm-4 °FFrigid.6 mph78%29.93 "HgN/A
7:00 pm-4 °FFrigid.5 mph71%29.92 "HgN/A
6:00 pm-5 °FFrigid.5 mph66%29.91 "HgN/A
5:00 pm-4 °FFrigid.2 mph67%29.90 "HgN/A
4:00 pm-5 °FFrigid.2 mph62%29.88 "HgN/A
3:00 pm-5 °FFrigid.3 mph70%29.85 "HgN/A
2:00 pm-5 °FFrigid.6 mph58%29.83 "HgN/A
1:00 pm-6 °FFrigid.6 mph63%29.80 "HgN/A
12:00 pm-7 °FFrigid.7 mph72%29.78 "HgN/A
11:00 am-8 °FFrigid.7 mph70%29.76 "HgN/A
10:00 am-8 °FFrigid.7 mph74%29.74 "HgN/A
9:00 am-7 °FFrigid.12 mph66%29.72 "HgN/A
8:00 am-8 °FFrigid.14 mph67%29.70 "HgN/A
7:00 am-7 °FFrigid.18 mph67%29.67 "HgN/A
6:00 am-7 °FFrigid.17 mph67%29.65 "HgN/A
5:00 am-8 °FFrigid.21 mph68%29.62 "HgN/A
Weather by CustomWeather, © 2017

See weather overviewHow to use our weather pages